McConnell AFB, KS

3:20 AM CDT on July 17, 2019 (GMT -0500)
McConnell Air Force Base

Weather History for KIAB - May, 2019

Change the Weather History Date:

Thursday, May 30, 2019

  Actual Average Record
Temperature  
Mean Temperature 68 °F -  
Max Temperature 81 °F 77 °F 98 °F (1998)
Min Temperature 54 °F 57 °F 53 °F (2015)
Cooling Degree Days 3    
Growing Degree Days 18 (Base 50)    
Moisture  
Dew Point 50 °F    
Average Humidity 54    
Maximum Humidity 91    
Minimum Humidity 28    
Precipitation  
Precipitation 0.00 in - - ()
Sea Level Pressure  
Sea Level Pressure 29.91 in    
Wind  
Wind Speed 7 mph (WSW)    
Max Wind Speed 17 mph    
Max Gust Speed 28 mph    
Visibility 10 miles    
Events      
Averages and records for this station are not official NWS values.
T = Trace of Precipitation, MM = Missing Value Source: NWS Daily Summary

Daily Weather History Graph

Daily Weather History Graph

Search for Another Location

Airport or City:

Astronomy

May. 30, 2019 Rise Set
Actual Time 6:10 AM CDT 8:43 PM CDT
Civil Twilight 5:39 AM CDT 9:13 PM CDT
Nautical Twilight 5:01 AM CDT 9:51 PM CDT
Astronomical Twilight 4:19 AM CDT 10:34 PM CDT
Moon 4:10 AM CDT (5/30) 4:57 PM CDT (5/30)
Length of Visible Light 15h 34m
Length of Day
14h 33m
Waning Crescent, 15% of the Moon is Illuminated
May 30
Waning Crescent
Jun 3
New
Jun 10
First Quarter
Jun 17
Full
Jun 25
Last Quarter

Hourly Weather History & Observations

Time (CDT) Temp. Dew Point Humidity Pressure Visibility Wind Dir Wind Speed Gust Speed Precip Events Conditions
12:56 AM 59.7 °F 52.2 °F 76% 29.90 in 10.0 mi WNW 3.5 mph - N/A   Clear
1:56 AM 58.3 °F 53.1 °F 83% 29.90 in 10.0 mi South 4.6 mph - N/A   Clear
2:56 AM 56.3 °F 52.5 °F 87% 29.90 in 10.0 mi WSW 4.6 mph - N/A   Clear
3:56 AM 55.6 °F 52.2 °F 88% 29.90 in 10.0 mi West 3.5 mph - N/A   Clear
4:56 AM 55.2 °F 51.8 °F 88% 29.90 in 10.0 mi SW 4.6 mph - N/A   Clear
5:56 AM 54.1 °F 51.6 °F 91% 29.90 in 10.0 mi WSW 5.8 mph - N/A   Clear
6:56 AM 54.7 °F 50.2 °F 85% 29.92 in 10.0 mi West 4.6 mph - N/A   Clear
7:56 AM 58.5 °F 50.5 °F 75% 29.92 in 10.0 mi West 9.2 mph - N/A   Clear
8:56 AM 63.0 °F 49.6 °F 62% 29.94 in 10.0 mi WSW 9.2 mph - N/A   Clear
9:56 AM 67.5 °F 52.2 °F 58% 29.94 in 10.0 mi SSW 8.1 mph - N/A   Clear
10:56 AM 71.1 °F 49.8 °F 47% 29.94 in 10.0 mi SW 11.5 mph 17.3 mph N/A   Partly Cloudy
11:56 AM 74.5 °F 48.6 °F 40% 29.94 in 10.0 mi SW 17.3 mph 23.0 mph N/A   Clear
12:56 PM 77.4 °F 46.8 °F 34% 29.92 in 10.0 mi WSW 16.1 mph 21.9 mph N/A   Partly Cloudy
1:56 PM 78.8 °F 45.5 °F 31% 29.91 in 10.0 mi WSW 15.0 mph 18.4 mph N/A   Scattered Clouds
2:56 PM 80.1 °F 44.1 °F 28% 29.91 in 10.0 mi WSW 17.3 mph 27.6 mph N/A   Partly Cloudy
3:56 PM 80.8 °F 44.6 °F 28% 29.91 in 10.0 mi WSW 15.0 mph 27.6 mph N/A   Clear
4:50 PM 82.4 °F 46.4 °F 28% 29.89 in 10.0 mi West 15.0 mph 21.9 mph N/A   Partly Cloudy
4:55 PM 80.6 °F 46.4 °F 30% 29.89 in 10.0 mi WSW 11.5 mph 21.9 mph N/A   Partly Cloudy
4:56 PM 81.3 °F 46.0 °F 29% 29.89 in 10.0 mi WSW 15.0 mph 23.0 mph N/A   Partly Cloudy
5:56 PM 81.0 °F 46.6 °F 30% 29.87 in 10.0 mi WSW 12.7 mph 23.0 mph N/A   Partly Cloudy
6:56 PM 79.9 °F 47.3 °F 32% 29.87 in 10.0 mi West 12.7 mph - N/A   Clear
7:56 PM 77.0 °F 50.7 °F 40% 29.88 in 10.0 mi NNW 8.1 mph - N/A   Clear
8:56 PM 74.1 °F 51.4 °F 45% 29.89 in 10.0 mi NNW 4.6 mph - N/A   Clear
9:56 PM 71.4 °F 52.9 °F 52% 29.92 in 10.0 mi Calm Calm - N/A   Clear
10:56 PM 70.3 °F 52.3 °F 53% 29.94 in 10.0 mi Calm Calm - N/A   Clear
11:56 PM 68.5 °F 53.6 °F 59% 29.94 in 10.0 mi Calm Calm - N/A   Clear